Zurück zum Katalog

STARLINK-32254

AktivKommunikationVLEO
NORAD 60427·PAYLOAD·🇺🇸 United States

Gestartet Aug 12, 2024 von Cape Canaveral Space Force Station

Loading…

Nächste Überflüge (nächste 24 Stunden)

TLE

AktuellSource: CelesTrak SupGP

Epoche: Sep 14, 2026, 14:45 UTC

1 60427C 24144C   26257.61506944 -.00061564  00000+0 -18189-2 0  2570
2 60427  53.1584  56.8770 0001143  92.1198 238.2343 15.34421866    15

Verfolge STARLINK-32254 in Echtzeit mit AllMySat

Download on the App Store